Location: The D'Auria's Ocala Star Observatory
(29.0276°N, 82.1742°W)
Time: 21:34:56
(UTC-05:00)

Daily predictions for brighter satellites

Satellite Brightness Start Highest point End
(mag) Time Altitude Azimuth Time Altitude Azimuth Time Altitude Azimuth
ATLAS CENTAUR R/B 4.0 18:42:25 10° S 18:47:17 17° SE 18:50:09 10° E
Cosmos 1386 Rocket 4.4 18:41:09 10° S 18:47:17 75° E 18:53:20 10° N
Cosmos 1812 3.0 18:45:16 10° N 18:48:59 44° E 18:52:40 10° SSE
METEOR-M 4.5 18:44:05 10° SE 18:49:05 42° ENE 18:54:05 10° N
Cosmos 1954 Rocket 4.3 18:45:08 10° S 18:50:01 44° E 18:54:55 10° NNE
GPS 2-04 Rocket1 3.5 18:48:04 10° SW 18:52:06 41° SSE 18:56:11 10° E
GEOS 3 Rocket 3.7 18:52:09 10° NNE 18:57:26 84° ESE 19:02:44 10° SSW
Abrixas rocket 4.0 18:55:51 10° S 18:58:14 18° SE 19:00:14 12° E
GOES 2 Rocket 3.6 18:54:41 10° W 18:59:51 59° SSW 19:04:08 10° ESE
Cosmos 2360 Rocket 3.6 18:57:49 10° NNE 19:01:36 18° ENE 19:05:08 11° ESE
Cosmos 1980 Rocket 3.4 18:57:05 10° NNW 19:02:30 47° WSW 19:07:55 10° S
SL-8 R/B 3.7 19:00:14 10° NW 19:05:03 73° NE 19:09:52 10° SE
Cosmos 1602 4.1 19:04:45 10° SSE 19:08:22 41° E 19:12:01 10° NNE
Cosmos 1633 2.9 19:05:22 10° SSE 19:08:52 44° E 19:12:23 10° NNE
Cosmos 1975 Rocket 4.3 19:05:28 10° NNW 19:09:34 44° W 19:13:40 10° SSW
Helios 1B rocket 3.9 19:07:49 11° ENE 19:10:17 17° E 19:13:01 10° SE
FREGAT/IRIS 2.7 19:11:16 10° SSE 19:14:16 55° ENE 19:17:17 10° N
ALOS 2.7 19:12:28 10° SE 19:16:47 39° ENE 19:21:07 10° N
CZ-3C R/B 2.6 19:12:04 10° WSW 19:17:46 22° S 19:20:02 11° SE
Cosmos 1833 4.2 19:12:03 10° SSW 19:17:46 88° ESE 19:23:28 10° NNE
NOSS 8 (F) 4.4 19:14:21 10° SSW 19:18:05 78° ESE 19:21:34 10° NNE
H-2A R/B 3.9 19:17:18 10° SSE 19:19:33 14° ESE 19:20:31 13° ESE
Cosmos 1536 Rocket 3.5 19:24:04 10° N 19:28:33 77° E 19:33:00 10° S
H-II Stage 2 3.6 19:28:25 10° S 19:29:14 11° S 19:29:54 10° SSE
ASTRO E2 2.8 19:25:13 10° W 19:29:14 72° SSW 19:31:26 25° ESE
Cosmos 1741 Rocket 4.2 19:25:18 10° S 19:30:18 48° ESE 19:35:18 10° NNE
SJ-6B 2.8 19:26:19 10° SSE 19:30:23 87° W 19:34:24 10° NNW
FengYun 1-2 T 4.2 19:27:01 10° SSE 19:32:22 57° ENE 19:37:44 10° N
Cosmos 1023 Rocket 4.4 19:28:51 10° SSW 19:33:55 85° WNW 19:39:02 10° NNE
SL-16 R/B 2.3 19:30:05 10° NNW 19:35:45 77° WSW 19:41:23 10° SSE
Resurs 01 Rocket 1.8 19:32:02 10° SSE 19:36:15 48° ENE 19:40:30 10° N
DNEPR-1 R/B 3.3 19:34:42 10° NNW 19:38:54 80° ENE 19:42:59 12° SSE
Gbstr 26 Del rocket 3.8 19:37:44 10° WSW 19:41:25 39° NW 19:43:57 17° NNE
Cosmos 1340 2.5 19:40:45 10° N 19:44:32 85° E 19:48:18 10° S
Cosmos 1238 Rocket 2.0 19:42:53 10° N 19:45:30 66° NNE 19:45:30 66° NNE
Meteor 1-19 Rocket 4.2 19:40:23 10° N 19:46:02 64° E 19:51:45 10° SSE
DELTA 2 R/B (1) 4.5 19:41:43 10° NW 19:46:49 34° NNE 19:48:38 28° NE
Atlas Centaur 2 4.3 19:46:12 10° SSE 19:48:00 11° SSE 19:48:37 11° SE
Hubble Space Telescope 2.1 19:46:19 10° SSW 19:49:42 24° SSE 19:49:46 24° SSE
Cosmos 2181 Rocket 3.9 19:45:26 10° N 19:51:43 87° E 19:58:05 10° S
Cosmos 1300 Rocket 4.4 19:48:56 10° SSW 19:53:11 50° W 19:57:29 10° N
Cosmos 2322 Rocket 3.1 19:48:12 10° NNW 19:53:34 49° WSW 19:58:57 10° S
Cosmos 1536 2.8 19:51:34 10° S 19:55:34 83° W 19:59:33 10° N
Tiangong 2 3.2 19:53:14 10° NNW 19:54:34 18° N 19:54:34 18° N
Resurs 1-3 3.4 19:55:14 14° SSE 19:58:55 76° ENE 20:03:19 10° N
Delta R/B 3.8 19:47:09 10° WSW 19:59:48 71° S 20:00:42 53° ESE
Meteor 1-13 Rocket 4.3 19:54:55 10° N 20:00:29 79° W 20:06:08 10° S
FENGYUN 3A 3.9 19:56:42 10° S 20:02:03 70° WSW 20:07:28 10° NNW
Cosmos 2074 Rocket 3.8 19:57:07 10° S 20:03:19 78° E 20:09:36 10° N
Cosmos 2184 Rocket 3.9 19:57:42 10° S 20:04:01 76° E 20:10:19 10° N
SL-19 R/B 4.3 20:00:09 10° SSE 20:05:42 82° WSW 20:11:32 10° NNW
Cosmos 2322 3.6 20:00:48 10° NNW 20:06:28 61° ENE 20:07:31 52° ESE
KM-V1 4.3 20:03:12 10° WSW 20:08:30 75° WSW 20:08:30 75° WSW
H-2A R/B 2.9 20:10:08 65° WSW 20:10:11 65° W 20:13:52 10° NNW
Cosmos 1461 3.9 20:07:51 10° NW 20:11:43 44° WSW 20:13:35 26° S
Spot 2 Rocket 3.7 20:07:12 10° S 20:12:12 69° WSW 20:17:14 10° NNW
Meteor 1-23 Rocket 4.2 20:06:41 10° N 20:12:26 62° E 20:12:57 59° ESE
COSMOS 2428 4.0 20:14:12 10° N 20:16:58 26° NNE 20:16:58 26° NNE
Meteor 2-4 Rocket 3.5 20:14:35 10° N 20:20:06 87° W 20:22:38 33° S
GPS 2-04 Rocket1 4.1 20:27:43 10° W 20:30:46 40° WNW 20:30:46 40° WNW
Cosmos 2219 4.2 20:30:42 10° SW 20:36:10 45° WNW 20:41:01 13° N
Cosmos 2360 Rocket 3.0 20:40:22 10° NNW 20:45:46 48° WSW 20:47:02 40° SW
ATLAS 2A CENTAUR R/B 3.6 21:04:27 10° W 21:07:25 41° SW 21:07:25 41° SW
CZ-3 Stage 3 4.2 21:22:13 10° WSW 21:44:41 53° SW 21:44:41 53° SW
